Hartford, CT

7:30 AM EDT on October 20, 2017 (GMT -0400)
Hartford-brainard

Weather History for KHFD - October, 2012

Change the Weather History Date:

Tuesday, October 2, 2012

  Actual Average Record
Temperature  
Mean Temperature 62 °F -  
Max Temperature 69 °F 68 °F 87 °F (1922)
Min Temperature 55 °F 46 °F 33 °F (1960)
Degree Days  
Heating Degree Days 4    
Growing Degree Days 12 (Base 50)    
Moisture  
Dew Point 56 °F    
Average Humidity 86    
Maximum Humidity 93    
Minimum Humidity 65    
Precipitation  
Precipitation 0.91 in - - ()
Sea Level Pressure  
Sea Level Pressure 30.02 in    
Wind  
Wind Speed 1 mph (NE)    
Max Wind Speed 8 mph    
Max Gust Speed -    
Visibility 6 miles    
Events Rain    
Averages and records for this station are not official NWS values.
T = Trace of Precipitation, MM = Missing Value Source: NWS Daily Summary

Daily Weather History Graph

Daily Weather History Graph

Search for Another Location

Airport or City:

Trip Planner

Search our weather history database for the weather conditions in past years. The results will help you decide how hot, cold, wet, or windy it might be!

Date:

Astronomy

Oct. 02, 2012 Rise Set
Actual Time 6:49 AM EDT 6:29 PM EDT
Civil Twilight 6:21 AM EDT 6:57 PM EDT
Nautical Twilight 5:49 AM EDT 7:29 PM EDT
Astronomical Twilight 5:16 AM EDT 8:02 PM EDT
Moon 7:37 PM EDT (10/2) 9:16 AM EDT (10/2)
Length of Visible Light 12h 36m
Length of Day
11h 40m
Waning Gibbous, 94% of the Moon is Illuminated
Oct 2
Waning Gibbous
Oct 8
Last Quarter
Oct 15
New
Oct 21
First Quarter
Oct 29
Full

Hourly Weather History & Observations

Time (EDT) Temp. Dew Point Humidity Pressure Visibility Wind Dir Wind Speed Gust Speed Precip Events Conditions
12:53 AM 55.9 °F 52.0 °F 87% 29.96 in 10.0 mi Calm Calm - N/A   Clear
1:53 AM 55.9 °F 52.0 °F 87% 29.97 in 10.0 mi Calm Calm - N/A   Clear
2:53 AM 55.9 °F 52.0 °F 87% 29.98 in 10.0 mi Calm Calm - N/A   Mostly Cloudy
3:53 AM 57.0 °F 52.0 °F 83% 29.99 in 10.0 mi Calm Calm - N/A   Overcast
4:53 AM 57.0 °F 52.0 °F 83% 29.99 in 10.0 mi Calm Calm - N/A   Overcast
5:53 AM 55.9 °F 53.1 °F 90% 30.00 in 10.0 mi Calm Calm - N/A   Mostly Cloudy
6:53 AM 57.0 °F 53.1 °F 87% 30.02 in 10.0 mi Calm Calm - N/A   Overcast
7:53 AM 57.9 °F 53.1 °F 84% 30.03 in 10.0 mi Calm Calm - N/A   Mostly Cloudy
8:53 AM 60.1 °F 54.0 °F 80% 30.04 in 10.0 mi Calm Calm - N/A   Scattered Clouds
9:53 AM 64.0 °F 54.0 °F 70% 30.05 in 10.0 mi Calm Calm - N/A   Overcast
10:53 AM 68.0 °F 55.9 °F 65% 30.04 in 10.0 mi Calm Calm - 0.00 in   Overcast
11:53 AM 68.0 °F 57.0 °F 68% 30.03 in 10.0 mi SSE 3.5 mph - N/A   Mostly Cloudy
12:54 PM 66.9 °F 57.9 °F 73% 30.04 in 10.0 mi Calm Calm - N/A Rain Light Rain
1:53 PM 63.0 °F 57.0 °F 81% 30.04 in 3.0 mi South 5.8 mph - 0.11 in Rain Rain
2:35 PM 62.6 °F 59.0 °F 88% 30.04 in 2.5 mi South 8.1 mph - 0.10 in Rain Rain
2:45 PM 60.8 °F 55.4 °F 82% 30.02 in 3.0 mi SSE 5.8 mph - 0.13 in Rain Heavy Rain
2:53 PM 60.1 °F 55.0 °F 83% 30.03 in 3.0 mi Calm Calm - 0.15 in Rain Rain
3:13 PM 60.8 °F 55.4 °F 82% 30.04 in 1.8 mi South 8.1 mph - 0.05 in Rain Heavy Rain
3:35 PM 60.8 °F 57.2 °F 88% 30.02 in 3.0 mi Calm Calm - 0.17 in Rain Light Rain
3:53 PM 60.1 °F 57.0 °F 90% 30.02 in 6.0 mi Calm Calm - 0.18 in Rain Light Rain
4:09 PM 60.8 °F 57.2 °F 88% 30.02 in 5.0 mi Calm Calm - 0.01 in Rain Light Rain
4:27 PM 60.8 °F 57.2 °F 88% 30.02 in 2.0 mi Calm Calm - 0.04 in Rain Rain
4:45 PM 60.8 °F 57.2 °F 88% 30.02 in 1.2 mi South 5.8 mph - 0.12 in Rain Heavy Rain
4:53 PM 60.1 °F 57.9 °F 93% 30.02 in 1.2 mi SSE 5.8 mph - 0.18 in Rain Heavy Rain
4:57 PM 60.8 °F 57.2 °F 88% 30.02 in 0.8 mi Calm Calm - 0.06 in Rain Heavy Rain
5:08 PM 60.8 °F 57.2 °F 88% 30.02 in 1.2 mi Calm Calm - 0.13 in Rain Heavy Rain
5:14 PM 60.8 °F 57.2 °F 88% 30.02 in 3.0 mi NW 3.5 mph - 0.13 in Rain Light Rain
5:32 PM 60.8 °F 57.2 °F 88% 30.02 in 2.0 mi North 3.5 mph - 0.15 in Rain Rain
5:42 PM 60.8 °F 57.2 °F 88% 30.02 in 4.0 mi Calm Calm - 0.16 in Rain Light Rain
5:49 PM 60.8 °F 57.2 °F 88% 30.02 in 3.0 mi Calm Calm - 0.17 in Rain Rain
5:53 PM 60.1 °F 57.9 °F 93% 30.02 in 3.0 mi Calm Calm - 0.17 in Rain Light Rain
6:29 PM 60.8 °F 57.2 °F 88% 30.02 in 6.0 mi NNE 3.5 mph - 0.01 in Rain Light Rain
6:53 PM 60.1 °F 57.9 °F 93% 30.02 in 6.0 mi NE 4.6 mph - 0.02 in Rain Light Rain
7:12 PM 60.8 °F 57.2 °F 88% 30.02 in 4.0 mi North 4.6 mph - 0.04 in Rain Rain
7:53 PM 60.1 °F 57.9 °F 93% 30.03 in 4.0 mi North 4.6 mph - 0.08 in Rain Light Rain
9:53 PM 60.1 °F 57.9 °F 93% 30.04 in 3.0 mi North 3.5 mph - 0.00 in Rain Light Rain
10:53 PM 60.1 °F 57.9 °F 93% 30.03 in 4.0 mi North 5.8 mph - 0.01 in   Overcast
11:42 PM 60.8 °F 57.2 °F 88% 30.04 in 3.0 mi North 6.9 mph - 0.01 in Rain Light Rain
11:53 PM 60.1 °F 57.9 °F 93% 30.04 in 4.0 mi North 5.8 mph - 0.01 in   Overcast